Location: C.E.K. Mees Observatory
(42.7003°N, 77.4088°W)
Time: 05:12:09
(UTC-04:00)

Tiangong 2 - Pass Details

Date: 16 October 2017
Orbit: 388 x 391 km, 42.8° (Epoch: 23 October)

Event Time Altitude Azimuth Distance (km) Brightness Sun altitude
Exits shadow 04:40:45 11° 85° (E) 1,363 4.7 -30.5°
Drops below altitude 10° 04:40:48 11° 85° (E) 1,380 4.7 -30.5°
Sets 04:42:58 0° 85° (E) 2,275 6.1 -30.1°
